Shawano, WI

3:40 PM CDT on July 25, 2016 (GMT -0500)
Shawano

Weather History for KEZS - March, 2013

Change the Weather History Date:

Friday, March 1, 2013

  Actual Average (KGRB) Record (KGRB)
Temperature  
Mean Temperature 24 °F 25 °F  
Max Temperature 32 °F 33 °F 53 °F (1992)
Min Temperature 17 °F 17 °F -29 °F (1962)
Degree Days  
Heating Degree Days 40 40  
Month to date heating degree days 40  
Since 1 July heating degree days 5880  
Cooling Degree Days 0 0  
Month to date cooling degree days 0  
Year to date cooling degree days 0  
Moisture  
Dew Point 14 °F    
Average Humidity 61    
Maximum Humidity 74    
Minimum Humidity 46    
Precipitation  
Precipitation 0.00 in 0.06 in 2.40 in (1888)
Month to date precipitation 0.06  
Year to date precipitation 2.30  
Snow  
Snow 0.00 in 0.40 in 24.00 in (1888)
Month to date snowfall 0.4  
Since 1 July snowfall 40.6  
Snow Depth -    
Sea Level Pressure  
Sea Level Pressure 30.22 in    
Wind  
Wind Speed 12 mph (NNE)    
Max Wind Speed 17 mph    
Max Gust Speed 28 mph    
Visibility 10 miles    
Events      
T = Trace of Precipitation, MM = Missing Value Source: NWS Daily Summary

Daily Weather History Graph

Daily Weather History Graph

Search for Another Location

Airport or City:

Trip Planner

Search our weather history database for the weather conditions in past years. The results will help you decide how hot, cold, wet, or windy it might be!

Date:

Astronomy

Mar. 01, 2013 Rise Set
Actual Time 6:31 AM CST 5:42 PM CST
Civil Twilight 6:02 AM CST 6:11 PM CST
Nautical Twilight 5:28 AM CST 6:45 PM CST
Astronomical Twilight 4:54 AM CST 7:19 PM CST
Moon 10:29 PM CST (3/1) 8:05 AM CST (3/1)
Length of Visible Light 12h 09m
Length of Day
11h 10m
Waning Gibbous, 83% of the Moon is Illuminated
Mar 1
Waning Gibbous
Mar 4
Last Quarter
Mar 11
New
Mar 19
First Quarter
Mar 27
Full

Hourly Weather History & Observations

Time (CST) Temp. Windchill Dew Point Humidity Pressure Visibility Wind Dir Wind Speed Gust Speed Precip Events Conditions
12:15 AM 26.6 °F 15.2 °F 19.4 °F 74% 30.15 in 10.0 mi NNE 13.8 mph 17.3 mph N/A   Overcast
12:35 AM 26.6 °F 14.7 °F 17.6 °F 69% 30.15 in 10.0 mi NNE 15.0 mph 21.9 mph N/A   Overcast
12:55 AM 26.6 °F 15.7 °F 17.6 °F 69% 30.16 in 10.0 mi NNE 12.7 mph 16.1 mph N/A   Overcast
1:15 AM 26.6 °F 15.2 °F 19.4 °F 74% 30.16 in 10.0 mi NE 13.8 mph - N/A   Overcast
1:35 AM 26.6 °F 18.2 °F 17.6 °F 69% 30.17 in 10.0 mi NE 8.1 mph - N/A   Overcast
1:55 AM 26.6 °F 17.5 °F 17.6 °F 69% 30.16 in 10.0 mi NE 9.2 mph - N/A   Overcast
2:15 AM 26.6 °F 17.5 °F 17.6 °F 69% 30.16 in 10.0 mi NE 9.2 mph - N/A   Overcast
2:35 AM 26.6 °F 17.5 °F 17.6 °F 69% 30.16 in 10.0 mi NNE 9.2 mph - N/A   Overcast
2:55 AM 26.6 °F 16.8 °F 19.4 °F 74% 30.16 in 10.0 mi NNE 10.4 mph - N/A   Overcast
3:15 AM 26.6 °F 16.2 °F 17.6 °F 69% 30.16 in 10.0 mi NE 11.5 mph - N/A   Overcast
3:35 AM 26.6 °F 16.8 °F 17.6 °F 69% 30.16 in 10.0 mi NE 10.4 mph 16.1 mph N/A   Overcast
3:55 AM 26.6 °F 19.1 °F 17.6 °F 69% 30.17 in 10.0 mi NE 6.9 mph - N/A   Overcast
4:15 AM 26.6 °F 19.1 °F 17.6 °F 69% 30.17 in 10.0 mi NNE 6.9 mph - N/A   Overcast
4:35 AM 24.8 °F 14.6 °F 17.6 °F 74% 30.18 in 10.0 mi NNE 10.4 mph - N/A   Overcast
4:55 AM 26.6 °F 16.2 °F 17.6 °F 69% 30.18 in 10.0 mi NNE 11.5 mph - N/A   Overcast
5:15 AM 26.6 °F 16.8 °F 17.6 °F 69% 30.18 in 10.0 mi NNE 10.4 mph - N/A   Overcast
5:55 AM 24.8 °F 13.4 °F 17.6 °F 74% 30.20 in 10.0 mi NNE 12.7 mph 16.1 mph N/A   Overcast
6:15 AM 24.8 °F 11.5 °F 15.8 °F 69% 30.20 in 10.0 mi NNE 17.3 mph - N/A   Overcast
6:35 AM 24.8 °F 13.4 °F 15.8 °F 69% 30.21 in 10.0 mi NNE 12.7 mph 19.6 mph N/A   Overcast
6:55 AM 24.8 °F 11.9 °F 15.8 °F 69% 30.21 in 10.0 mi NNE 16.1 mph 19.6 mph N/A   Overcast
7:15 AM 24.8 °F 13.4 °F 15.8 °F 69% 30.23 in 10.0 mi NNE 12.7 mph - N/A   Overcast
7:35 AM 24.8 °F 12.4 °F 15.8 °F 69% 30.23 in 10.0 mi NNE 15.0 mph 19.6 mph N/A   Overcast
7:55 AM 24.8 °F 12.4 °F 15.8 °F 69% 30.24 in 10.0 mi NNE 15.0 mph - N/A   Overcast
8:15 AM 24.8 °F 12.4 °F 15.8 °F 69% 30.25 in 10.0 mi NNE 15.0 mph - N/A   Overcast
8:35 AM 24.8 °F 13.4 °F 15.8 °F 69% 30.25 in 10.0 mi NNE 12.7 mph 20.7 mph N/A   Overcast
8:55 AM 24.8 °F 11.9 °F 15.8 °F 69% 30.24 in 10.0 mi NNE 16.1 mph 27.6 mph N/A   Overcast
9:15 AM 24.8 °F 12.9 °F 15.8 °F 69% 30.24 in 10.0 mi NNE 13.8 mph - N/A   Overcast
9:35 AM 26.6 °F 15.2 °F 15.8 °F 64% 30.24 in 10.0 mi NE 13.8 mph - N/A   Overcast
9:55 AM 26.6 °F 15.2 °F 15.8 °F 64% 30.24 in 10.0 mi NNE 13.8 mph - N/A   Overcast
10:15 AM 26.6 °F 16.2 °F 15.8 °F 64% 30.25 in 10.0 mi NE 11.5 mph 17.3 mph N/A   Overcast
10:35 AM 26.6 °F 15.7 °F 15.8 °F 64% 30.25 in 10.0 mi NNE 12.7 mph - N/A   Overcast
10:55 AM 28.4 °F 18.5 °F 15.8 °F 59% 30.25 in 10.0 mi NNE 11.5 mph - N/A   Overcast
11:15 AM 28.4 °F 17.5 °F 15.8 °F 59% 30.24 in 10.0 mi NNE 13.8 mph 18.4 mph N/A   Scattered Clouds
11:35 AM 30.2 °F 20.8 °F 17.6 °F 60% 30.24 in 10.0 mi NNE 11.5 mph - N/A   Mostly Cloudy
11:55 AM 30.2 °F 19.8 °F 17.6 °F 60% 30.24 in 10.0 mi NNE 13.8 mph - N/A   Scattered Clouds
12:15 PM 32.0 °F 23.6 °F 17.6 °F 55% 30.23 in 10.0 mi NNE 10.4 mph - N/A   Clear
12:55 PM 32.0 °F 21.6 °F 17.6 °F 55% 30.22 in 10.0 mi NNE 15.0 mph - N/A   Clear
1:15 PM 32.0 °F 22.1 °F 17.6 °F 55% 30.21 in 10.0 mi NNE 13.8 mph - N/A   Clear
1:35 PM 32.0 °F 21.2 °F 15.8 °F 51% 30.20 in 10.0 mi NNE 16.1 mph - N/A   Clear
1:55 PM 32.0 °F 22.5 °F 17.6 °F 55% 30.20 in 10.0 mi NNE 12.7 mph 18.4 mph N/A   Clear
2:15 PM 32.0 °F 22.1 °F 17.6 °F 55% 30.19 in 10.0 mi NNE 13.8 mph - N/A   Clear
2:35 PM 32.0 °F 22.5 °F 17.6 °F 55% 30.19 in 10.0 mi NNE 12.7 mph 18.4 mph N/A   Clear
2:55 PM 32.0 °F 22.5 °F 15.8 °F 51% 30.19 in 10.0 mi NE 12.7 mph - N/A   Clear
3:15 PM 32.0 °F 21.2 °F 15.8 °F 51% 30.19 in 10.0 mi NNE 16.1 mph - N/A   Clear
3:35 PM 32.0 °F 24.2 °F 15.8 °F 51% 30.19 in 10.0 mi NE 9.2 mph - N/A   Clear
3:55 PM 32.0 °F 24.2 °F 15.8 °F 51% 30.19 in 10.0 mi NE 9.2 mph - N/A   Clear
4:15 PM 32.0 °F 23.6 °F 15.8 °F 51% 30.20 in 10.0 mi NNE 10.4 mph - N/A   Clear
4:35 PM 32.0 °F 24.8 °F 14.0 °F 48% 30.20 in 10.0 mi NE 8.1 mph - N/A   Clear
4:55 PM 32.0 °F 24.2 °F 14.0 °F 48% 30.21 in 10.0 mi NNE 9.2 mph - N/A   Clear
5:15 PM 30.2 °F 21.9 °F 12.2 °F 47% 30.22 in 10.0 mi NE 9.2 mph - N/A   Clear
5:55 PM 28.4 °F 20.4 °F 10.4 °F 47% 30.23 in 10.0 mi NNE 8.1 mph - N/A   Clear
6:15 PM 26.6 °F 18.2 °F 8.6 °F 47% 30.23 in 10.0 mi NNE 8.1 mph - N/A   Clear
6:35 PM 24.8 °F 19.1 °F 8.6 °F 50% 30.24 in 10.0 mi NE 4.6 mph - N/A   Clear
6:55 PM 24.8 °F 16.9 °F 8.6 °F 50% 30.24 in 10.0 mi NNE 6.9 mph - N/A   Clear
7:15 PM 24.8 °F 15.3 °F 6.8 °F 46% 30.25 in 10.0 mi NNE 9.2 mph - N/A   Clear
7:35 PM 23.0 °F 12.4 °F 6.8 °F 50% 30.25 in 10.0 mi NE 10.4 mph - N/A   Clear
7:55 PM 24.8 °F 16.1 °F 8.6 °F 50% 30.25 in 10.0 mi NE 8.1 mph - N/A   Clear
8:15 PM 23.0 °F 12.4 °F 8.6 °F 54% 30.26 in 10.0 mi NNE 10.4 mph 17.3 mph N/A   Clear
8:35 PM 21.2 °F 12.6 °F 8.6 °F 58% 30.27 in 10.0 mi NNE 6.9 mph - N/A   Clear
8:55 PM 21.2 °F 13.6 °F 8.6 °F 58% 30.27 in 10.0 mi NNE 5.8 mph - N/A   Clear
9:15 PM 19.4 °F 10.4 °F 8.6 °F 63% 30.27 in 10.0 mi NE 6.9 mph - N/A   Clear
9:35 PM 19.4 °F 9.5 °F 8.6 °F 63% 30.27 in 10.0 mi NNE 8.1 mph - N/A   Clear
9:55 PM 19.4 °F 9.5 °F 8.6 °F 63% 30.28 in 10.0 mi NNE 8.1 mph - N/A   Clear
10:15 PM 19.4 °F 8.6 °F 8.6 °F 63% 30.29 in 10.0 mi NNE 9.2 mph - N/A   Clear
10:35 PM 19.4 °F 10.4 °F 8.6 °F 63% 30.29 in 10.0 mi NNE 6.9 mph - N/A   Clear
10:55 PM 17.6 °F 10.7 °F 8.6 °F 68% 30.28 in 10.0 mi North 4.6 mph - N/A   Clear
11:15 PM 19.4 °F 14.3 °F 8.6 °F 63% 30.28 in 10.0 mi North 3.5 mph - N/A   Clear
11:35 PM 19.4 °F 11.5 °F 8.6 °F 63% 30.27 in 10.0 mi NNW 5.8 mph - N/A   Clear
11:55 PM 19.4 °F 12.8 °F 8.6 °F 63% 30.26 in 10.0 mi NNW 4.6 mph - N/A   Clear